DELTA 1 DEB, 10716

Orbit data source: Space-Track

DELTA 1 DEB, 10716 is space debris in SSO originally from a launch on Thu, 29 Jul 1976 UTC launched from the Air Force Western Test Range (AFWTR). Debris objects in space refer to the collection of defunct objects orbiting the Earth. Examples of debris include non-operational satellites, rocket bodies, and fragments generated from explosions, collisions, or faulty payload assembly.

Loading next visibility...
Identifier
10716, 1976-077AM
Orbit
SSO
Last TLE update
1 day ago
Origin
Manufacturer
Unknown
Mission
Spacecraft
Bus & Motor
Unknown
Mass
Unknown
Launch date (UTC)
1976-07-29 (49 years ago)
Launch vehicle
Unknown
Launch site
Air Force Western Test Range (AFWTR)
Object type
Payload
Rocket body
Debris
Shape & HBR
Unknown
Radar Cross Section
Small (<0.1 m²)

Expand to show TLE details & history

TLE from 1 day ago
0 DELTA 1 DEB
1 10716U 76077AM  25181.40234103  .00000258  00000-0  13148-2 0  9990
2 10716 102.7408 333.9347 0127230  77.1840 309.4193 12.80672244231734
Epoch: 2025-06-30T09:39Z
TLE epoch observation values (Epoch: 2025-06-30T09:39:22.264Z)
Latitude
24.82509°
Longitude
-95.59439°
Altitude
1,279.865 km
Speed
7.247 km/s
True Right ascension
21h 51m 50s
True Declination
24° 42' 12"
Sunlit
Object was in daylight at epoch
Visualization orbit readout
Latitude
26.00122°
Longitude
-94.77584°
Altitude
1,275.912 km
Speed
7.251 km/s
Apparent Right ascension
22h 30m 48s
Apparent Declination
-19° 56' 18"
Sunlit
Object is in daylight
Visualization observer readout
Local Sidereal Time
21:40:27
Azimuth
166.455° S
Elevation
29.004°
Doppler factor
1
Orbital elements
Apogee altitude
1,434.487 km
Perigee altitude
1,238.185 km
Semi-major axis
7,714.473 km
Eccentricity
0.01272
Inclination
102.7408°
RAAN
333.9347°
Arg. of periapsis
77.184°
True anomaly
Unknown
Mean anomaly
309.4193°
Eccentric anomaly
Unknown
Mean motion
3.2032 °/min
Orbital period
112.39 mins
BSTAR
0.0013148
Loading maneuver chart data...
Loading SW <> Apogee altitude chart data...
Loading historical data...
Loading historical data...
Loading historical data...
Loading historical data...
Loading historical data...
Loading historical data...
Loading historical data...

DELTA 1 DEB Visibility forecast

Observer location: undefined°, undefined°

Span
Click to sort rows by Start time (UTC) header in descending order
Start Az.
Max El. time (UTC)
Max El. Az.
Max El.
End time (UTC)
End Az.
11 mins2025-07-01 10:02:04.697Z166.529° S2025-07-01 10:06:04.697Z219.024° SW44.523°2025-07-01 10:13:04.697Z339.058° N
4 mins2025-07-01 11:56:04.697Z254.872° W2025-07-01 11:58:04.697Z271.957° WNW12.537°2025-07-01 12:00:04.697Z288.591° WNW
9 mins2025-07-01 21:49:04.697Z61.646° ENE2025-07-01 21:53:04.697Z101.333° ESE20.499°2025-07-01 21:58:04.697Z143.26° SSE
13 mins2025-07-01 23:37:04.697Z13.209° NNE2025-07-01 23:43:04.697Z312.132° NW43.279°2025-07-01 23:50:04.697Z211.596° SW
6 mins2025-07-02 01:30:04.697Z332.766° NNW2025-07-02 01:32:04.697Z315.463° NNW14.478°2025-07-02 01:36:04.697Z282.082° WNW
10 mins2025-07-02 08:34:04.697Z103.109° ESE2025-07-02 08:38:04.697Z61.89° ENE25.532°2025-07-02 08:44:04.697Z3.134° NNE
|